Regional Weather Roundup
Issued by NWS State College, PA

Current Version | Previous Version | Text Only | Print | Product List | Glossary On
Versions: 1 2 3 4 5 6 7 8 9 10 11 12 13 14 15 16 17 18 19 20 21 22 23 24 25 26 27 28 29 30 31 32 33 34 35 36 37 38 39 40 41 42 43 44 45 46 47 48 49 50
277
ASUS41 KCTP 081210
RWRCTP

REGIONAL WEATHER ROUNDUP
NATIONAL WEATHER SERVICE STATE COLLEGE PA
700 AM EST MON FEB 08 2016

Note: "fair" indicates few or no clouds below 12,000 feet with no
significant weather and/or obstructions to visibility.

* = STATION THAT DOES NOT REPORT PRECIPITATION /E.G. RAIN...SNOW...ETC/
    THUNDER OR FOG.

PAZ002>004-007>009-013>016-020>023-029>032-081300-
WESTERN PENNSYLVANIA

CITY           SKY/WX    TMP DP  RH WIND       PRES   REMARKS
ERIE           PTCLDY    39  23  52 S12       29.65F
MEADVILLE      CLOUDY    35  23  61 SE3       29.64F
FRANKLIN*      MOCLDY    30  21  69 SE7       29.68S
NEW CASTLE     CLOUDY    35  23  61 VRB5      29.67F
BEAVER COUNTY  CLOUDY    34  25  69 SE6       29.66
BUTLER*        CLOUDY    34  21  60 SE5       29.70F
PITTSBURGH INT CLOUDY    33  23  66 SE6       29.66F
PITTSBURGH     PTCLDY    35  24  64 S6        29.67F
INDIANA*       CLOUDY    28  27  93 E5        29.72F
LATROBE        CLEAR     28  25  86 CALM      29.70F
WASHINGTON CO* PTCLDY    30  21  69 S5        29.67F
$$

PAZ004>006-010>012-017>019-024>028-033>037-041-042-045-046-049>053-081300-
CENTRAL PENNSYLVANIA

CITY           SKY/WX    TMP DP  RH WIND       PRES   REMARKS
BRADFORD       CLOUDY    29  22  75 SE5       29.68F
DUBOIS         CLOUDY    31  22  69 SE9       29.68F
CLEARFIELD     CLOUDY    26  22  84 NE7       29.73F
JOHNSTOWN      PTCLDY    31  19  61 SE6       29.67F
ALTOONA        CLOUDY    25  21  85 W3        29.75R FOG
STATE COLLEGE  CLEAR     23  21  93 CALM      29.75F
WILLIAMSPORT   CLOUDY    24  21  88 CALM      29.80S
SELINSGROVE    CLOUDY    23  20  88 CALM      29.81S
FT INDIANTOWN  CLOUDY    27  21  77 CALM      29.79S
CAPITAL CITY   PTCLDY    24  19  81 W6        29.81R
HARRISBURG     CLOUDY    27  22  81 NW3       29.81R
YORK           PTCLDY    22  18  85 CALM      29.80R
$$

PAZ038>040-043-044-047-048-054-055-060>062-067>071-081300-
EASTERN PENNSYLVANIA

CITY           SKY/WX    TMP DP  RH WIND       PRES   REMARKS
SCRANTON       MOCLDY    32  22  66 CALM      29.78R
MOUNT POCONO   CLOUDY    29  21  72 NE10      29.73R
ALLENTOWN      CLOUDY    35  23  61 N5        29.80R
QUAKERTOWN*    CLOUDY    34  25  69 N5        29.78R
READING        MOCLDY    33  21  61 NE5       29.79S
LANCASTER      PTCLDY    31  21  66 N3        29.79S
COATESVILLE    PTSUNNY   34  23  64 N7        29.78S
POTTSTOWN      CLOUDY    34  23  64 NW5       29.80R
BLUE BELL        N/A     34  27  75 CALM      29.77R
DOYLESTOWN     CLOUDY    34  25  69 NE8       29.76R
WILLOW GROVE   NOT AVBL
NORTH PHILA    CLOUDY    38  27  64 N10       29.78R
PHILADELPHIA   CLOUDY    38  26  62 N10       29.77R
$$




USA.gov is the U.S. government's official web portal to all federal, state and local government web resources and services.